Regional Weather Roundup
Issued by NWS

Home | Current Version | Previous Version | Text Only | Print | Product List | Glossary On
Versions: 1 2 3 4 5 6 7 8 9 10 11 12 13 14 15 16 17 18 19 20 21 22 23 24 25 26 27 28 29 30 31 32 33 34 35 36 37 38 39 40 41 42 43 44 45 46 47 48 49 50
000
ASUS42 KFFC 132303
RWRGA
WEATHER ROUNDUP FOR GEORGIA
NATIONAL WEATHER SERVICE PEACHTREE CITY GA
600 PM EST THU DEC 13 2018

NOTE: "FAIR" INDICATES FEW OR NO CLOUDS BELOW 12,000 FEET WITH NO
SIGNIFICANT WEATHER AND/OR OBSTRUCTIONS TO VISIBILITY.

* = USE WITH CAUTION. THE STATIONS MARKED WITH AN ASTERISK MAY NOT
REPORT WEATHER SUCH AS PRECIPITATION, FOG, OR THUNDER AND ARE NOT
QUALITY CONTROLLED BY NWS.

THE REMARK "TC" DENOTES TEMPERATURE READING IN DEGREES CELSIUS.

GAZ001>058-140000-
NORTH GEORGIA

CITY           SKY/WX    TMP DP  RH WIND       PRES   REMARKS
ATLANTA        CLOUDY    49  36  61 E10       30.17R
ATHENS         FAIR      48  35  60 NE8       30.20R
CHAMBLEE       MOCLDY    48  34  58 VRB5      30.18R
PEACHTREE CITY CLOUDY    51  39  63 E6        30.16S
ROME           CLOUDY    51  33  50 SE3       30.14R
WEST ATLANTA   CLOUDY    51  37  58 E6        30.17R
GAINESVILLE    MOCLDY    48  31  51 E9G18     30.22R
CARTERSVILLE   FAIR      50  31  48 CALM      30.17R


CITY           SKY/WX    TMP DP  RH WIND       PRES   REMARKS
DALTON*        FAIR      50  28  43 CALM      30.16S
LAWRENCEVILLE* CLOUDY    48  35  60 NE7       30.19R
MARIETTA       CLOUDY    49  33  54 E6        30.16R
KENNESAW*      MOCLDY    50  33  52 E6        30.17R
CANTON*        CLOUDY    52  21  30 E6        30.18R
BLAIRSVILLE*   CLOUDY    49  18  29 E8        30.18S
$$

GAZ059>098-102>109-140000-
CENTRAL GEORGIA

CITY           SKY/WX    TMP DP  RH WIND       PRES   REMARKS
AUGUSTA-BUSH   FAIR      53  40  61 CALM      30.22R
AUGUSTA-DANIEL MOCLDY    55  37  50 NE6       30.23R
COLUMBUS       CLOUDY    56  45  66 E10       30.11R
MACON          MOCLDY    54  46  74 NE6       30.16S
ROBINS AFB     MOCLDY    54  46  74 NE3       30.15S


CITY           SKY/WX    TMP DP  RH WIND       PRES   REMARKS
LAGRANGE*      CLOUDY    55  44  66 E5        30.12F
SYLVANIA*      CLOUDY    57  49  73 E5        30.20S
MILLEDGEVILLE* FAIR      52  45  76 CALM      30.18S
$$

GAZ099>101-110>166-140000-
SOUTH GEORGIA

CITY           SKY/WX    TMP DP  RH WIND       PRES   REMARKS
SAVANNAH       CLOUDY    60  48  64 NE8       30.19F
VALDOSTA       FAIR      61  55  81 CALM      30.11S
ALMA           MOCLDY    61  50  67 E8        30.14S
ST SIMONS      CLOUDY    61  57  87 NE7       30.14F
ALBANY         CLOUDY    59  49  69 E10       30.11F
MOODY AFB      FAIR      61  54  78 E6        30.10R
BRUNSWICK      CLOUDY    59  55  88 NE6       30.16S


CITY           SKY/WX    TMP DP  RH WIND       PRES   REMARKS
BAINBRIDGE*      N/A     59  50  72 E6        30.07F
MOULTRIE*      CLOUDY    59  52  77 E3        30.11S
VIDALIA*       CLOUDY    59  46  63 E6        30.18R
WAYCROSS*      CLOUDY    61  54  76 E7        30.15R
$$



USA.gov is the U.S. government's official web portal to all federal, state and local government web resources and services.